{"data":{"norad_id":62245,"intl_designator":"2024-232J","name":"QIANFAN-44","alt_names":[],"object_type":"PAYLOAD","status":"ACTIVE","operator":null,"country":"PRC","launch_date":"2024-12-05","launch_site_code":"TAISC","launch_vehicle":null,"mission":null,"orbit_class":"UNKNOWN","rcs_meters":null,"size_class":null,"mass_kg":null,"dimensions":null,"purposes":[],"wikipedia_slug":null,"has_3d_model":false,"image_url":null,"decayed_at":null,"tle_current":{"epoch":"2026-05-25T03:06:27.510048Z","epoch_age_seconds":60032,"freshness":"FRESH","line1":"1 62245U 24232J   26145.12948507  .00000089  00000+0  11824-3 0  9991","line2":"2 62245  89.0101  24.6540 0015739  81.3288 278.9645 13.51007589121392","mean_motion":13.51007589,"eccentricity":0.0015739,"inclination_deg":89.0101,"raan_deg":24.654,"arg_perigee_deg":81.3288,"mean_anomaly_deg":278.9645,"bstar":0.00011824,"rev_number":12139,"period_min":106.58711407135,"perigee_km":1056.8333518157,"apogee_km":1080.2740447958,"semimajor_km":7446.6906983057,"source":"CELESTRAK","updated_at":"2026-05-25T13:38:02.867143Z"}}}